Regional Weather Roundup
Issued by NWS Little Rock, AR

Home | Current Version | Previous Version | Graphics & Text | Print | Product List | Glossary On
Versions: 1 2 3 4 5 6 7 8 9 10 11 12 13 14 15 16 17 18 19 20 21 22 23 24 25 26 27 28 29 30 31 32 33 34 35 36 37 38 39 40 41 42 43 44 45 46 47 48 49 50
000
ASUS44 KLZK 272105
RWRLZK

WEATHER ROUNDUP FOR ARKANSAS
NATIONAL WEATHER SERVICE LITTLE ROCK AR
400 PM CDT SAT AUG 27 2016

NOTE: "FAIR" INDICATES FEW OR NO CLOUDS BELOW 12,000 FEET WITH NO
SIGNIFICANT WEATHER AND/OR OBSTRUCTIONS TO VISIBILITY.

ARZ001-003-010-029-272200-
NORTHWEST ARKANSAS

CITY           SKY/WX    TMP DP  RH WIND       PRES   REMARKS
FAYETTEVILLE   CLOUDY    83  71  67 S5        30.03F HX  87
FORT SMITH     CLOUDY    83  71  67 SE6       30.00F HX  87
HARRISON       CLOUDY    80  72  76 S8        30.05F
BENTONVILLE    MOSUNNY   84  66  54 CALM      30.05F HX  86
ROGERS         CLOUDY    85  68  56 N3        30.04F HX  88
SILOAM SPGS    CLOUDY    84  66  54 SE6       30.05F HX  86
HIGHFILL       CLOUDY    85  71  63 S5        30.04F HX  90
SPRINGDALE     MOSUNNY   84  70  61 S6        30.05F HX  88
$$

ARZ004-005-016-272200-
NORTH CENTRAL ARKANSAS

CITY           SKY/WX    TMP DP  RH WIND       PRES   REMARKS
BATESVILLE     MOSUNNY   88  73  62 E5        30.01F HX  96
FLIPPIN        CLOUDY    81  70  69 SE3       30.01F
MTN HOME       TSTM      77  74  90 W3        30.04F
$$

ARZ040-041-272200-
WEST CENTRAL ARKANSAS

CITY           SKY/WX    TMP DP  RH WIND       PRES   REMARKS
MENA           MOSUNNY   90  73  58 E3        30.01F HX  98
MOUNT IDA      MOSUNNY   90  66  45 CALM      29.98  HX  92
$$

ARZ009-017-025-026-028-272200-
NORTHEAST ARKANSAS

CITY           SKY/WX    TMP DP  RH WIND       PRES   REMARKS
CORNING          N/A     91  73  55 SE6       30.01F HX 100
JONESBORO      MOSUNNY   89  71  55 SW8       30.00F HX  95
NEWPORT        CLOUDY    90  74  59 SE7       30.00F HX  99
WALNUT RIDGE   MOSUNNY   88  72  58 E6        30.00F HX  94
BLYTHEVILLE    SUNNY     91  74  57 CALM      30.02F HX 100
$$

ARZ022-023-033-042-044-272200-
CENTRAL ARKANSAS

CITY           SKY/WX    TMP DP  RH WIND       PRES   REMARKS
LITTLE ROCK    MOSUNNY   92  72  51 SE8       29.98F HX  99
N LITTLE ROCK    N/A     89  74  61 SE6       29.96F HX  97
JACKSONVILLE   MOSUNNY   89  74  62 CALM      29.98F HX  98
SEARCY         PTSUNNY   88  76  67 E8        30.01F HX  99
HOT SPRINGS    SUNNY     89  70  53 SE8       29.99F HX  94
RUSSELLVILLE   TSTM      78  72  81 NW8       30.00F
$$

ARZ036-272200-
EAST ARKANSAS

CITY           SKY/WX    TMP DP  RH WIND       PRES   REMARKS
WEST MEMPHIS   SUNNY     91  61  36 W3        29.99F HX  91
$$

ARZ050-053-066-070-073-272200-
SOUTHWEST ARKANSAS

CITY           SKY/WX    TMP DP  RH WIND       PRES   REMARKS
ARKADELPHIA    FAIR      89  74  60 CALM      29.97F HX  98
TEXARKANA      MOSUNNY   90  72  55 NE8       29.95F HX  97
EL DORADO      SUNNY     91  70  49 E7        29.96F HX  96
DE QUEEN       MOSUNNY   91  73  55 VRB5      29.94F HX  99
$$

ARZ056-057-069-272200-
SOUTHEAST ARKANSAS

CITY           SKY/WX    TMP DP  RH WIND       PRES   REMARKS
PINE BLUFF     SUNNY     92  68  45 N3        29.97F HX  96
STUTTGART      SUNNY     90  72  55 NE5       29.99F HX  96
MONTICELLO     SUNNY     94  70  45 E9        29.96F HX 100

$$





USA.gov is the U.S. government's official web portal to all federal, state and local government web resources and services.